This demonstration page uses our WeatherBlox Daily Observations layout. Learn more.

39.92423, -83.80882

Hourly Observations for April 7, 2020

Temp ( °F °C ) Dew Point ( °F °C ) Humidity (%) Winds ( mph kmh ) Pressure ( in mb ) Visibility ( mi km ) Precip ( " mm )
12:56 am 00:56 Mostly Clear 52 11.1 51 10.6 97 97 SSE 5 7 30 1016 10 16.0934 0 0
1:56 am 01:56 Clear 49 9.4 48 8.9 97 97 E 3 6 29.99 1016 8 12.87472 0 0
2:56 am 02:56 Clear 52 11.1 50 10 93 93 S 3 6 29.96 1015 10 16.0934 0 0
3:56 am 03:56 Mostly Clear 47 8.3 47 8.3 100 100 SSE 3 6 29.95 1014 8 12.87472 0 0
4:56 am 04:56 Cloudy 49 9.4 49 9.4 100 100 Calm 29.93 1014 7 11.26538 0 0
5:56 am 05:56 Cloudy 56 13.3 52 11.1 87 87 S 6 9 29.91 1013 10 16.0934 0 0
6:56 am 06:56 Cloudy 58 14.4 52 11.1 81 81 SSW 7 11 29.91 1013 10 16.0934 0 0
7:56 am 07:56 Cloudy 56 13.3 53 11.7 90 90 NNE 13 20 29.97 1015 10 16.0934 0 0
8:26 am 08:26 Cloudy 55 13 54 12 94 94 ENE 7 11 29.96 1015 10 16.0934 0 0
8:56 am 08:56 Mostly Cloudy 57 13.9 54 12.2 90 90 ESE 7 11 29.93 1014 10 16.0934 0 0
9:56 am 09:56 Cloudy 61 16.1 54 12.2 78 78 ESE 12 19 29.91 1013 10 16.0934 0 0
10:56 am 10:56 Partly Cloudy 65 18.3 56 13.3 73 73 S 9 15 29.89 1012 10 16.0934 0 0
11:56 am 11:56 Cloudy 68 20 57 13.9 68 68 S 6 9 29.88 1012 10 16.0934 0 0
12:56 pm 12:56 Mostly Cloudy 71 21.7 60 15.6 68 68 W 16 26 29.85 1011 10 16.0934 0 0
1:56 pm 13:56 Partly Cloudy 73 22.8 61 16.1 66 66 WSW 13 20 29.83 1010 10 16.0934 0 0
2:56 pm 14:56 Partly Cloudy 74 23.3 61 16.1 64 64 W 17 28 29.79 1009 10 16.0934 0 0
3:56 pm 15:56 Cloudy 74 23.3 60 15.6 62 62 WSW 16 26 29.76 1008 10 16.0934 0 0
4:56 pm 16:56 Mostly Cloudy 75 23.9 59 15 58 58 WSW 18 30 29.73 1007 10 16.0934 0 0
5:56 pm 17:56 Mostly Cloudy 75 23.9 58 14.4 55 55 WSW 16 26 29.72 1006 10 16.0934 0 0
6:56 pm 18:56 Mostly Cloudy 74 23.3 59 15 60 60 SW 13 20 29.7 1006 10 16.0934 0 0
7:56 pm 19:56 Mostly Sunny 72 22.2 59 15 64 64 SW 12 19 29.69 1006 10 16.0934 0 0
8:56 pm 20:56 Clear 70 21.1 59 15 68 68 SW 10 17 29.69 1005 10 16.0934 0 0
9:56 pm 21:56 Clear 69 20.6 58 14.4 68 68 SW 12 19 29.68 1005 10 16.0934 0 0
10:56 pm 22:56 Clear 69 20.6 58 14.4 68 68 SW 22 35 29.62 1003 10 16.0934 0 0
11:56 pm 23:56 Clear 68 20 59 15 73 73 WSW 14 22 29.66 1004 10 16.0934 0 0

Powered by AerisWeather